Change the Weather History Date:

Saturday, June 22, 2013

  Actual Average Record
Temperature  
Mean Temperature 80 °F 81 °F  
Max Temperature 86 °F 90 °F 100 °F (2009)
Min Temperature 73 °F 73 °F 66 °F (1995)
Cooling Degree Days 15    
Month to date cooling degree days 366  
Year to date cooling degree days 747  
Since 1 June cooling degree days 366  
Growing Degree Days 30 (Base 50)    
Moisture  
Dew Point 72 °F    
Average Humidity 79    
Maximum Humidity 93    
Minimum Humidity 65    
Precipitation  
Precipitation 0.17 in 0.20 in 3.33 in (1942)
Month to date precipitation 2.70 3.64  
Year to date precipitation 21.98 23.02  
Sea Level Pressure  
Sea Level Pressure 30.09 in    
Wind  
Wind Speed 6 mph (SE)    
Max Wind Speed 17 mph    
Max Gust Speed 22 mph    
Visibility 9 miles    
Events Rain    
T = Trace of Precipitation, MM = Missing Value Source: NWS Daily Summary

Daily Weather History Graph

Daily Weather History Graph

Search for Another Location

Airport or City:

Trip Planner

Search our weather history database for the weather conditions in past years. The results will help you decide how hot, cold, wet, or windy it might be!

Date:

Astronomy

Jun. 22, 2013 Rise Set
Actual Time 6:40 AM EDT 8:43 PM EDT
Civil Twilight 6:13 AM EDT 9:11 PM EDT
Nautical Twilight 5:39 AM EDT 9:44 PM EDT
Astronomical Twilight 5:04 AM EDT 10:20 PM EDT
Moon 8:02 PM EDT (6/22) 5:48 AM EDT (6/22)
Length of Visible Light 14h 58m
Length of Day
14h 03m
Waxing Gibbous, 99% of the Moon is Illuminated
Jun 22
Waxing Gibbous
Jun 23
Full
Jun 30
Last Quarter
Jul 8
New
Jul 15
First Quarter

Hourly Weather History & Observations

Time (EDT) Temp. Heat Index Dew Point Humidity Pressure Visibility Wind Dir Wind Speed Gust Speed Precip Events Conditions
12:53 AM 75.9 °F - 71.1 °F 85% 30.09 in 10.0 mi NNE 4.6 mph - N/A   Clear
1:53 AM 73.9 °F - 69.1 °F 85% 30.09 in 10.0 mi NE 5.8 mph - N/A   Clear
2:53 AM 73.0 °F - 70.0 °F 90% 30.08 in 10.0 mi NE 6.9 mph - N/A   Clear
3:53 AM 73.0 °F - 70.0 °F 90% 30.06 in 10.0 mi NE 6.9 mph - N/A   Clear
4:53 AM 73.0 °F - 70.0 °F 90% 30.06 in 10.0 mi NE 5.8 mph - N/A   Clear
5:53 AM 73.0 °F - 70.0 °F 90% 30.06 in 10.0 mi NE 5.8 mph - N/A   Clear
6:53 AM 73.9 °F - 71.1 °F 91% 30.07 in 10.0 mi ENE 4.6 mph - N/A   Partly Cloudy
7:50 AM 75.2 °F - 71.6 °F 89% 30.10 in 1.8 mi East 8.1 mph - 0.01 in Rain Heavy Rain
7:53 AM 73.9 °F - 70.0 °F 87% 30.10 in 1.5 mi ESE 4.6 mph - 0.05 in Rain Heavy Rain
8:02 AM 75.2 °F - 71.6 °F 89% 30.10 in 3.0 mi Calm Calm - 0.06 in Rain Rain
8:53 AM 78.1 °F - 75.0 °F 90% 30.10 in 10.0 mi NE 3.5 mph - 0.08 in   Partly Cloudy
9:53 AM 82.0 °F 87.4 °F 73.0 °F 74% 30.11 in 10.0 mi ESE 8.1 mph - N/A   Scattered Clouds
10:21 AM 82.4 °F 88.2 °F 73.4 °F 74% 30.11 in 10.0 mi SE 8.1 mph - N/A   Mostly Cloudy
10:53 AM 84.0 °F 90.2 °F 73.0 °F 69% 30.12 in 10.0 mi Variable 6.9 mph - N/A   Mostly Cloudy
11:53 AM 84.9 °F 90.7 °F 72.0 °F 65% 30.12 in 10.0 mi ESE 8.1 mph - N/A   Partly Cloudy
12:24 PM 84.2 °F 90.9 °F 73.4 °F 70% 30.11 in 10.0 mi South 13.8 mph - N/A   Mostly Cloudy
12:49 PM 86.0 °F 93.4 °F 73.4 °F 66% 30.11 in 10.0 mi SSE 13.8 mph - N/A   Mostly Cloudy
12:53 PM 84.9 °F 91.4 °F 73.0 °F 67% 30.12 in 10.0 mi SSE 12.7 mph - N/A   Mostly Cloudy
1:00 PM 82.4 °F 88.2 °F 73.4 °F 74% 30.11 in 10.0 mi SSE 17.3 mph 21.9 mph N/A   Mostly Cloudy
1:14 PM 80.6 °F 85.4 °F 73.4 °F 79% 30.12 in 5.0 mi SW 9.2 mph - 0.00 in Rain Light Rain
1:19 PM 78.8 °F - 73.4 °F 83% 30.12 in 2.5 mi SW 5.8 mph - 0.02 in Rain Heavy Rain
1:30 PM 80.6 °F 86.2 °F 75.2 °F 84% 30.11 in 8.0 mi South 8.1 mph - 0.04 in Rain Light Rain
1:53 PM 81.0 °F 86.2 °F 73.9 °F 79% 30.12 in 10.0 mi South 6.9 mph - 0.04 in   Mostly Cloudy
2:53 PM 82.9 °F 88.8 °F 73.0 °F 72% 30.11 in 10.0 mi South 6.9 mph - N/A   Partly Cloudy
3:53 PM 84.0 °F 90.2 °F 73.0 °F 69% 30.10 in 10.0 mi SSE 8.1 mph - N/A   Partly Cloudy
4:53 PM 82.9 °F 88.0 °F 72.0 °F 69% 30.07 in 10.0 mi South 5.8 mph - N/A   Mostly Cloudy
5:53 PM 84.0 °F 90.2 °F 73.0 °F 69% 30.06 in 10.0 mi SW 9.2 mph - N/A   Partly Cloudy
6:53 PM 82.0 °F 86.7 °F 72.0 °F 71% 30.05 in 10.0 mi SW 5.8 mph - N/A   Scattered Clouds
7:13 PM 82.4 °F 88.2 °F 73.4 °F 74% 30.04 in 10.0 mi SW 3.5 mph - N/A   Mostly Cloudy
7:48 PM 82.4 °F 87.2 °F 71.6 °F 70% 30.05 in 10.0 mi SW 4.6 mph - 0.00 in   Scattered Clouds
7:53 PM 82.9 °F 87.5 °F 71.1 °F 67% 30.05 in 10.0 mi WSW 5.8 mph - 0.00 in   Scattered Clouds
8:53 PM 79.0 °F - 73.9 °F 84% 30.06 in 10.0 mi ENE 4.6 mph - N/A   Clear
9:53 PM 78.1 °F - 73.0 °F 84% 30.06 in 10.0 mi SE 3.5 mph - N/A   Clear
10:53 PM 80.1 °F 84.2 °F 73.0 °F 79% 30.07 in 10.0 mi SE 4.6 mph - N/A   Partly Cloudy
11:13 PM 80.6 °F 85.4 °F 73.4 °F 79% 30.08 in 10.0 mi SE 3.5 mph - N/A   Mostly Cloudy
11:23 PM 80.6 °F 84.6 °F 71.6 °F 74% 30.08 in 10.0 mi SSE 4.6 mph - N/A   Scattered Clouds
11:53 PM 79.0 °F - 72.0 °F 79% 30.09 in 10.0 mi SSE 3.5 mph - N/A   Scattered Clouds